This is the latest recevied weather packets stored in our database for station/object BV3BA-13. If no packets are shown the sender has not sent any weather packets the latest 10 day(s).
| Time | Temp. | Humidity | Pressure | Rain* | Wind** | Luminosity | Snow |
|---|---|---|---|---|---|---|---|
| 1778124424 | 27.78° C | 75% | 1009.1 hPa | 0 mm | - | - | - |
| 1778123824 | 27.78° C | 77% | 1009.2 hPa | 0 mm | - | - | - |
| 1778123224 | 27.78° C | 72% | 1009.3 hPa | 0 mm | - | - | - |
| 1778122624 | 27.22° C | 74% | 1009.4 hPa | 0 mm | - | - | - |
| 1778122024 | 26.67° C | 76% | 1009.5 hPa | 0 mm | - | - | - |
| 1778121423 | 26.67° C | 77% | 1009.5 hPa | 0 mm | - | - | - |
| 1778120824 | 26.67° C | 76% | 1009.6 hPa | 0 mm | - | - | - |
| 1778120223 | 26.67° C | 75% | 1009.7 hPa | 0 mm | - | - | - |
| 1778119623 | 26.11° C | 77% | 1009.9 hPa | 0 mm | - | - | - |
| 1778119024 | 25.56° C | 81% | 1009.9 hPa | 0 mm | - | - | - |
| 1778118423 | 25.56° C | 82% | 1010.1 hPa | 0 mm | - | - | - |
| 1778117823 | 26.11° C | 82% | 1010.1 hPa | 0 mm | - | - | - |
| 1778117224 | 25° C | 82% | 1010.1 hPa | 0 mm | - | - | - |
| 1778116623 | 25.56° C | 82% | 1010.2 hPa | 0 mm | - | - | - |
| 1778116023 | 24.44° C | 83% | 1010.1 hPa | 0 mm | - | - | - |
| 1778115424 | 25° C | 81% | 1010.1 hPa | 0 mm | - | - | - |
| 1778114823 | 24.44° C | 84% | 1010.1 hPa | 0 mm | - | - | - |
| 1778114223 | 23.89° C | 84% | 1010 hPa | 0 mm | - | - | - |
| 1778113624 | 23.89° C | 86% | 1010 hPa | 0 mm | - | - | - |
| 1778113024 | 23.33° C | 86% | 1010.2 hPa | 0 mm | - | - | - |
| 1778112423 | 23.33° C | 86% | 1010.2 hPa | 0 mm | - | - | - |
| 1778111823 | 22.78° C | 87% | 1010.2 hPa | 0 mm | - | - | - |
| 1778111224 | 22.78° C | 88% | 1010.3 hPa | 0 mm | - | - | - |
| 1778110623 | 22.78° C | 88% | 1010.3 hPa | 0 mm | - | - | - |
| 1778110023 | 22.78° C | 89% | 1010.3 hPa | 0 mm | - | - | - |
* Rain latest hour (hover to see other rain measurements)
** Current wind speed in m/s (hover to see current wind gust speed)